Regional Weather Roundup
Issued by NWS

Home | Current Version | Previous Version | Graphics & Text | Print | Product List | Glossary On
Versions: 1 2 3 4 5 6 7 8 9 10 11 12 13 14 15 16 17 18 19 20 21 22 23 24 25 26 27 28 29 30 31 32 33 34 35 36 37 38 39 40 41 42 43 44 45 46 47 48 49 50
000
ASUS43 KLSX 261259
RWRMO

WEATHER SUMMARY FOR MISSOURI
NATIONAL WEATHER SERVICE SPRINGFIELD MO
800 AM CDT THU MAR 26 2015

NOTE: "FAIR" INDICATES FEW OR NO CLOUDS BELOW 12,000 FEET WITH NO
       SIGNIFICANT WEATHER AND/OR OBSTRUCTIONS TO VISIBILITY.
       CURRENT SKY AND/OR WEATHER CONDITIONS ARE NOT AVAILABLE FOR
       CHILLICOTHE AND FARMINGTON.

MOZ001>031-035>038-043-044-053-054-261400-
...NORTHERN AND WESTERN MISSOURI...

CITY           SKY/WX    TMP DP  RH WIND       PRES   REMARKS
KANSAS CTY INT PTCLDY    31  28  89 NW7       30.21R WCI  24
KANSAS C DTWN  PTCLDY    35  29  78 N5        30.22R
LEE`S SUMMIT   PTCLDY    34  29  82 N7        30.21R WCI  28
ST JOSEPH      CLEAR     29  26  89 N3        30.23R FOG
CHILLICOTHE      N/A     34  27  75 VRB5      30.21R WCI  30
KIRKSVILLE     CLEAR     32  26  78 NW7       30.15R WCI  26

$$
MOZ066>068-077>081-088>096-101>105-261400-
...SOUTHWEST MISSOURI...

CITY           SKY/WX    TMP DP  RH WIND       PRES   REMARKS
SPRINGFIELD    CLOUDY    40  36  86 N13       30.11R
JOPLIN         CLOUDY    40  33  76 N13G21    30.17R

$$
MOZ032>034-039>042-045>050-055>058-069>072-261400-
...CENTRAL MISSOURI...

CITY           SKY/WX    TMP DP  RH WIND       PRES   REMARKS
COLUMBIA       PTSUNNY   37  29  72 N14       30.14R WCI  28
JEFFERSON CITY CLOUDY    38  30  73 N14       30.15R WCI  30
ROLLA          CLOUDY    38  35  89 MISG      30.06R
OSAGE BEACH    CLOUDY    39  30  70 N6        30.11R

$$
MOZ051-052-059>065-261400-
...EAST CENTRAL MISSOURI...

CITY           SKY/WX    TMP DP  RH WIND       PRES   REMARKS
ST LOUIS INTL  CLOUDY    40  34  79 N12G21    30.07R
SPIRIT OF STL  CLOUDY    39  30  70 NW13      30.08R
ST CHARLES     CLOUDY    39  32  76 N12       30.08R

$$
MOZ072>076-082>087-097>100-106>115-261400-
...SOUTH CENTRAL AND SOUTHEAST MISSOURI...

CITY           SKY/WX    TMP DP  RH WIND       PRES   REMARKS
CAPE GIRARDEAU CLOUDY    45  43  93 N13       29.99R
FARMINGTON     CLOUDY    39  37  93 N12G18    30.05R
POPLAR BLUFF   LGT RAIN  46  42  86 NE12      29.96R FOG
WEST PLAINS    LGT RAIN  42  40  92 MISG      30.03R FOG

$$


USA.gov is the U.S. government's official web portal to all federal, state and local government web resources and services.